• In Uzbekistan
  • List of Countries
  • For 7 days
  • Water Temperature
  • Satellite Maps
  • Weather Map
  • Weather Widgets
  • user-avatar
    Login

    Hourly Weather Bad Heilbrunn

    Today, 23 February, Saturday

    Time Temperature Precipitation Wind Pressure Humidity
    00:00 -2°C° 0 mm 2 mps 748 mmHg 86%
    01:00 -2°C° 0 mm 2 mps 749 mmHg 92%
    02:00 -2°C° 0 mm 2 mps 748 mmHg 89%
    03:00 -2°C° 0 mm 2 mps 748 mmHg 85%
    04:00 -3°C° 0 mm 2 mps 748 mmHg 82%
    05:00 -3°C° 0 mm 2 mps 748 mmHg 78%
    06:00 -3°C° 0 mm 2 mps 748 mmHg 74%
    07:00 -1°C° 0 mm 1 mps 749 mmHg 71%
    08:00 -2°C° 0 mm 2 mps 749 mmHg 62%
    09:00 +1°C° 0 mm 2 mps 749 mmHg 53%
    10:00 +2°C° 0 mm 2 mps 749 mmHg 44%
    11:00 +4°C° 0 mm 2 mps 749 mmHg 40%
    12:00 +5°C° 0 mm 2 mps 748 mmHg 35%
    13:00 +6°C° 0 mm 2 mps 749 mmHg 31%
    14:00 +6°C° 0 mm 2 mps 748 mmHg 34%
    15:00 +6°C° 0 mm 2 mps 748 mmHg 37%
    16:00 +6°C° 0 mm 2 mps 747 mmHg 39%
    17:00 +5°C° 0 mm 2 mps 747 mmHg 44%
    18:00 +3°C° 0 mm 2 mps 747 mmHg 48%
    19:00 +1°C° 0 mm 2 mps 747 mmHg 52%
    20:00 +1°C° 0 mm 2 mps 747 mmHg 51%
    21:00 +2°C° 0 mm 1 mps 747 mmHg 49%
    22:00 +2°C° 0 mm 1 mps 747 mmHg 48%
    23:00 +2°C° 0 mm 1 mps 747 mmHg 48%

    Tomorrow, 24 February, Sunday

    Time Temperature Precipitation Wind Pressure Humidity
    00:00 +2°C° 0 mm 1 mps 747 mmHg 47%
    01:00 +2°C° 0 mm 1 mps 747 mmHg 46%
    02:00 +2°C° 0 mm 1 mps 747 mmHg 46%
    03:00 +2°C° 0 mm 1 mps 747 mmHg 45%
    04:00 +2°C° 0 mm 1 mps 747 mmHg 45%
    05:00 +2°C° 0 mm 1 mps 746 mmHg 44%
    06:00 +2°C° 0 mm 1 mps 746 mmHg 43%
    07:00 +2°C° 0 mm 1 mps 746 mmHg 42%
    08:00 +3°C° 0 mm 1 mps 747 mmHg 39%
    09:00 +5°C° 0 mm 1 mps 747 mmHg 36%
    10:00 +7°C° 0 mm 1 mps 747 mmHg 34%
    11:00 +8°C° 0 mm 1 mps 747 mmHg 32%
    12:00 +10°C° 0 mm 1 mps 747 mmHg 31%
    13:00 +11°C° 0 mm 1 mps 747 mmHg 30%
    14:00 +10°C° 0 mm 0 mps 747 mmHg 34%
    15:00 +10°C° 0 mm 0 mps 747 mmHg 38%
    16:00 +11°C° 0 mm 0 mps 747 mmHg 42%
    17:00 +9°C° 0 mm 0 mps 747 mmHg 45%
    18:00 +7°C° 0 mm 0 mps 747 mmHg 48%
    19:00 +5°C° 0 mm 0 mps 747 mmHg 51%
    20:00 +5°C° 0 mm 0 mps 747 mmHg 52%
    21:00 +4°C° 0 mm 0 mps 747 mmHg 53%
    22:00 +4°C° 0 mm 0 mps 747 mmHg 54%
    23:00 +4°C° 0 mm 0 mps 747 mmHg 55%

    Day after tomorrow, 25 February, Monday

    Time Temperature Precipitation Wind Pressure Humidity
    00:00 +4°C° 0 mm 0 mps 747 mmHg 55%
    01:00 +3°C° 0 mm 0 mps 747 mmHg 56%
    02:00 +3°C° 0 mm 0 mps 747 mmHg 57%
    03:00 +4°C° 0 mm 1 mps 747 mmHg 58%
    04:00 +4°C° 0 mm 1 mps 746 mmHg 59%
    05:00 +4°C° 0 mm 1 mps 746 mmHg 59%
    06:00 +3°C° 0 mm 1 mps 746 mmHg 60%
    07:00 +3°C° 0 mm 1 mps 746 mmHg 60%
    08:00 +4°C° 0 mm 0 mps 747 mmHg 57%
    09:00 +6°C° 0 mm 0 mps 747 mmHg 53%
    10:00 +7°C° 0 mm 0 mps 748 mmHg 49%
    11:00 +9°C° 0 mm 0 mps 748 mmHg 46%
    12:00 +11°C° 0 mm 1 mps 748 mmHg 42%
    13:00 +12°C° 0 mm 1 mps 747 mmHg 39%
    14:00 +13°C° 0 mm 1 mps 747 mmHg 41%
    15:00 +13°C° 0 mm 1 mps 747 mmHg 43%
    16:00 +13°C° 0 mm 1 mps 746 mmHg 45%
    17:00 +11°C° 0 mm 1 mps 746 mmHg 49%
    18:00 +9°C° 0 mm 1 mps 746 mmHg 53%
    19:00 +6°C° 0 mm 0 mps 746 mmHg 57%
    20:00 +6°C° 0 mm 0 mps 746 mmHg 57%
    21:00 +5°C° 0 mm 0 mps 746 mmHg 57%
    22:00 +5°C° 0 mm 0 mps 746 mmHg 57%
    23:00 +5°C° 0 mm 0 mps 746 mmHg 57%

    26 February, Tuesday

    Time Temperature Precipitation Wind Pressure Humidity
    00:00 +5°C° 0 mm 1 mps 746 mmHg 57%
    01:00 +5°C° 0 mm 1 mps 746 mmHg 57%
    02:00 +5°C° 0 mm 1 mps 745 mmHg 57%
    03:00 +5°C° 0 mm 1 mps 745 mmHg 58%
    04:00 +4°C° 0 mm 1 mps 745 mmHg 58%
    05:00 +4°C° 0 mm 1 mps 745 mmHg 59%
    06:00 +4°C° 0 mm 1 mps 745 mmHg 60%
    07:00 +3°C° 0 mm 0 mps 744 mmHg 60%
    08:00 +5°C° 0 mm 1 mps 745 mmHg 56%
    09:00 +7°C° 0 mm 1 mps 745 mmHg 53%
    10:00 +9°C° 0 mm 1 mps 745 mmHg 49%
    11:00 +10°C° 0 mm 1 mps 745 mmHg 45%
    12:00 +12°C° 0 mm 1 mps 745 mmHg 42%
    13:00 +13°C° 0 mm 2 mps 745 mmHg 39%
    14:00 +13°C° 0 mm 2 mps 745 mmHg 40%
    15:00 +13°C° 0 mm 2 mps 745 mmHg 42%
    16:00 +13°C° 0 mm 1 mps 744 mmHg 44%
    17:00 +11°C° 0 mm 1 mps 744 mmHg 48%
    18:00 +9°C° 0 mm 1 mps 744 mmHg 53%
    19:00 +7°C° 0 mm 1 mps 744 mmHg 57%
    20:00 +7°C° 0 mm 1 mps 744 mmHg 57%
    21:00 +6°C° 0 mm 1 mps 744 mmHg 58%
    22:00 +6°C° 0 mm 1 mps 744 mmHg 58%
    23:00 +6°C° 0 mm 1 mps 744 mmHg 58%

    27 February, Wednesday

    Time Temperature Precipitation Wind Pressure Humidity
    00:00 +5°C° 0 mm 1 mps 744 mmHg 58%
    01:00 +5°C° 0 mm 1 mps 743 mmHg 58%
    02:00 +5°C° 0 mm 1 mps 743 mmHg 58%
    03:00 +5°C° 0 mm 1 mps 743 mmHg 57%
    04:00 +5°C° 0 mm 1 mps 743 mmHg 57%
    05:00 +4°C° 0 mm 1 mps 742 mmHg 57%
    06:00 +4°C° 0 mm 1 mps 742 mmHg 57%
    07:00 +4°C° 0 mm 1 mps 742 mmHg 56%
    08:00 +6°C° 0 mm 1 mps 742 mmHg 53%
    09:00 +8°C° 0 mm 1 mps 742 mmHg 50%
    10:00 +10°C° 0 mm 1 mps 742 mmHg 48%
    11:00 +11°C° 0 mm 1 mps 742 mmHg 44%
    12:00 +13°C° 0 mm 2 mps 741 mmHg 40%
    13:00 +15°C° 0 mm 2 mps 741 mmHg 37%
    14:00 +15°C° 0 mm 2 mps 740 mmHg 40%
    15:00 +15°C° 0 mm 2 mps 740 mmHg 43%
    16:00 +15°C° 0 mm 2 mps 739 mmHg 46%
    17:00 +13°C° 0 mm 2 mps 738 mmHg 51%
    18:00 +10°C° 0 mm 2 mps 738 mmHg 57%
    19:00 +8°C° 0 mm 2 mps 738 mmHg 63%
    20:00 +8°C° 0 mm 3 mps 737 mmHg 64%
    21:00 +7°C° 0 mm 3 mps 737 mmHg 66%
    22:00 +7°C° 0 mm 3 mps 737 mmHg 68%
    23:00 +7°C° 0 mm 3 mps 736 mmHg 71%

    28 February, Thursday

    Time Temperature Precipitation Wind Pressure Humidity
    00:00 +5°C° 0 mm 3 mps 736 mmHg 73%
    01:00 +5°C° 0 mm 4 mps 736 mmHg 76%
    02:00 +5°C° 0 mm 4 mps 735 mmHg 81%
    03:00 +5°C° 0 mm 4 mps 735 mmHg 87%
    04:00 +5°C° 0 mm 4 mps 735 mmHg 92%
    05:00 +5°C° 0 mm 5 mps 735 mmHg 92%
    06:00 +6°C° 0 mm 5 mps 735 mmHg 92%
    07:00 +6°C° 0 mm 5 mps 735 mmHg 92%
    08:00 +6°C° 0 mm 5 mps 735 mmHg 90%
    09:00 +5°C° 0 mm 6 mps 735 mmHg 88%
    10:00 +5°C° 0 mm 6 mps 735 mmHg 86%
    11:00 +5°C° 0 mm 6 mps 736 mmHg 85%
    12:00 +7°C° 0 mm 6 mps 736 mmHg 84%
    13:00 +7°C° 0 mm 6 mps 736 mmHg 83%
    14:00 +7°C° 0 mm 6 mps 736 mmHg 82%
    15:00 +7°C° 0 mm 6 mps 736 mmHg 81%
    16:00 +7°C° 0 mm 6 mps 736 mmHg 80%
    17:00 +7°C° 0 mm 5 mps 736 mmHg 81%
    18:00 +6°C° 0 mm 5 mps 737 mmHg 83%
    19:00 +5°C° 0 mm 4 mps 737 mmHg 84%
    20:00 +5°C° 0 mm 4 mps 737 mmHg 87%
    21:00 +4°C° 0 mm 4 mps 737 mmHg 89%
    22:00 +3°C° 0 mm 3 mps 737 mmHg 91%
    23:00 +3°C° 0 mm 3 mps 737 mmHg 92%
    Show more